< < Back
Terminal Aerodrome Forecast


Current Version              Previous Versions:   1  2  3  4  5  6  7  8  9  

Terminal Aerodrome Forecast

597
FTUS42 KFFC 301739
TAFMCN
TAF
KMCN 301739Z 3018/3118 25010KT P6SM SCT015 BKN025
     FM302000 30012KT P6SM FEW020 BKN035
     FM310000 30008KT P6SM SCT050
     FM310500 VRB03KT P6SM SKC
      TEMPO 3108/3112 4SM BR
     FM311400 20005KT P6SM SCT035=

Latest METAR

953
SAUS80 KWBC 310600 RRA
MTRMCN
METAR KMCN 310553Z AUTO 00000KT 4SM BR CLR 08/08 A3010 RMK AO2 SLP193
T00830083 10194 20083 58004 TSNO


USA.gov is the U.S. government's official web portal to all federal, state and local government web resources and services.